Skip Page Navigation
NASA JPL Caltech
NASA Logo - Jet Propulsion Laboratory + View the NASA Portal
+ Near-Earth Object (NEO) Program
Search JPL
JPL Home Earth Solar System Stars & Galaxies Technology
JPL Solar System Dynamics
BODIES ORBITS EPHEMERIDES TOOLS PHYSICAL DATA DISCOVERY FAQ SITE MAP
JPL Small-Body Database Browser
Search: [ help ]  
5709 Tamyeunleung (1977 TS3)
Classification: Main-belt Asteroid          SPK-ID: 2005709
Ephemeris | Orbit Diagram | Orbital Elements | Physical Parameters | Discovery Circumstances | Close-Approach Data ]

[ show orbit diagram ]
Orbital Elements at Epoch 2456400.5 (2013-Apr-18.0) TDB
Reference: JPL 1 (heliocentric ecliptic J2000)
 Element Value Uncertainty (1-sigma)   Units 
e .2508115389353244 7.4465e-08  
a 3.080486665334818 2.9812e-08 AU
q 2.307865064132447 2.3162e-07 AU
i 4.198062893185497 6.7649e-06 deg
node 113.8837539448567 0.00010554 deg
peri 260.5896552191487 0.00010632 deg
M 214.0301193825738 1.8012e-05 deg
tp 2457201.233832604384
(2015-Jun-27.73383260)
0.00010703 JED
period 1974.819589618577
5.41
2.8668e-05
7.849e-08
d
yr
n .1822951331313923 2.6463e-09 deg/d
Q 3.85310826653719 3.729e-08 AU
  Orbit Determination Parameters
   # obs. used (total)      1047  
   data-arc span      12988 days (35.56 yr)  
   first obs. used      1977-09-23  
   last obs. used      2013-04-15  
   planetary ephem.      DE405  
   SB-pert. ephem.      SB405-CPV-2  
   condition code      0  
   fit RMS      .55273  
   data source      ORB  
   producer      Otto Matic  
   solution date      2013-Apr-29 13:18:10  

Additional Information
 Earth MOID = 1.31276 AU 
 T_jup = 3.175 
[ show covariance matrix ]

Ephemeris | Orbit Diagram | Orbital Elements | Physical Parameters | Discovery Circumstances | Close-Approach Data ]

Physical Parameter Table
Parameter Symbol Value Units Sigma Reference Notes
absolute magnitude H 12.00 mag n/a IRAS-A-FPA-3-RDR-IMPS-V6.0 IRAS observations used: 2
diameter diameter 18.36 km 1.7 IRAS-A-FPA-3-RDR-IMPS-V6.0 IRAS observations used: 2
geometric albedo albedo 0.0831   0.018 IRAS-A-FPA-3-RDR-IMPS-V6.0 IRAS observations used: 2

5709 Tamyeunleung           Discovered 1977 Oct. 12 at the Purple Mountain Observatory.
Fong Tamyeunleung (b. 1924) is a lady held in great respect. Together with her husband, Fong Yunwah, she has devoted herself over a long period of time to charity in helping women, children and disabled persons.
NOTE: some special characters may not display properly (any characters within {} are an attempt to place the proper accent above a character)
Reference: 20060809/MPCPages.arcLast Updated: 2007-08-08

[ show close-approach data ]
Alternate Designations
 1977 TS3 = 1977 VN1 = 1977 VQ1 = 1988 VE2 
Ephemeris | Orbit Diagram | Orbital Elements | Physical Parameters | Discovery Circumstances | Close-Approach Data ]
ABOUT SSD CREDITS/AWARDS PRIVACY/COPYRIGHT GLOSSARY LINKS
FirstGov 2013-May-19 12:50 UT
(server date/time)  
NASA Home Page
Site Manager:   Donald K. Yeomans
Webmaster  Alan B. Chamberlin